Date String (YYYY-MM-DD hh:mm:ss) UTC,Instrument flags,absolute air pressure of the measurement (hPa),sample flow rate (lpm),inlet stack bypass flow (lpm),air temperature of the measurement (°C),ambient temperature measured by the external sensor (°C),aerosol sample conditioner tube jacket temperature (°C),OPC LED temperature (°C),internal box temperature (°C),relative humidity of the measurement (%),span deviation,mass concentration of particles derived from Lorenz-Mie calculation of OPC scattering (μg/m³),mass concentration of particles derived from Lorenz-Mie calculation of OPC scattering (μg/m³),mass concentration of particles derived from Lorenz-Mie calculation of OPC scattering (μg/m³)
DateTimeUTC,F1_M11,P_M11,Q1_M11,Q2_M11,T1_M11,T2_M11,T3_M11,T4_M11,T5_M11,U1_M11,ZSPAN_M11,X0_M11,X2_M11,X1_M11
2024-04-25 04:00:00,SystemResetWarning,0824.9,5.00,000.00,025.7,025.2,000.0,033.8,027.6,022.3,0003.8,0025.49,0008.11,0006.31
2024-04-25 04:01:00,SystemResetWarning,0824.9,5.00,000.00,025.7,025.2,000.0,033.9,027.7,022.3,0003.7,0026.23,0008.06,0006.28
2024-04-25 04:02:00,SystemResetWarning,0824.9,5.00,000.00,025.8,025.3,000.0,033.9,027.7,022.1,0003.2,0027.29,0008.09,0006.28
2024-04-25 04:03:00,SystemResetWarning,0824.9,4.99,000.00,025.8,025.3,000.0,033.9,027.7,022.1,0002.6,0026.24,0008.09,0006.27
2024-04-25 04:04:00,SystemResetWarning,0824.9,4.99,000.00,025.8,025.3,000.0,034.0,027.7,022.0,0003.2,0025.83,0008.14,0006.30
2024-04-25 04:05:00,SystemResetWarning,0824.9,4.99,000.00,025.8,025.0,000.0,034.0,027.5,022.1,0003.8,0026.36,0008.14,0006.34
2024-04-25 04:06:00,SystemResetWarning,0824.9,5.00,000.00,025.5,022.8,000.0,034.1,026.4,022.6,0003.5,0026.44,0008.12,0006.35
2024-04-25 04:07:00,SystemResetWarning,0824.9,5.01,000.00,025.1,022.0,000.0,034.0,025.7,023.2,0003.8,0026.42,0008.11,0006.38
2024-04-25 04:08:00,SystemResetWarning,0824.9,5.01,000.00,024.9,022.2,000.0,033.9,025.8,023.7,0003.8,0025.62,0008.12,0006.42
2024-04-25 04:09:00,SystemResetWarning,0825.0,4.99,000.00,024.9,022.6,000.0,033.8,026.1,024.0,0003.8,0024.90,0008.21,0006.45
2024-04-25 04:10:00,SystemResetWarning,0825.0,4.99,000.00,024.9,022.9,000.0,033.7,026.4,023.7,0003.5,0024.81,0008.24,0006.49
2024-04-25 04:11:00,SystemResetWarning,0825.0,5.00,000.00,025.0,023.3,000.0,033.6,026.6,023.3,0003.3,0023.99,0008.24,0006.51
2024-04-25 04:12:00,SystemResetWarning,0825.1,5.01,000.00,025.0,023.5,000.0,033.6,026.7,023.4,0003.4,0022.78,0008.16,0006.44
2024-04-25 04:13:00,SystemResetWarning,0825.0,5.00,000.00,025.1,023.8,000.0,033.6,026.8,023.5,0003.6,0021.27,0008.04,0006.34
2024-04-25 04:14:00,SystemResetWarning,0825.0,4.99,000.00,025.1,024.0,000.0,033.6,026.9,023.8,0003.9,0020.89,0007.88,0006.20
2024-04-25 04:15:00,SystemResetWarning,0825.0,5.00,000.00,025.2,024.2,000.0,033.6,027.0,023.7,0003.8,0019.71,0007.61,0006.02
2024-04-25 04:16:00,SystemResetWarning,0824.9,5.00,000.00,025.2,024.3,000.0,033.6,027.1,023.5,0003.2,0019.80,0007.41,0005.83
2024-04-25 04:17:00,SystemResetWarning,0824.9,5.00,000.00,025.3,024.5,000.0,033.6,027.2,023.5,0003.3,0019.40,0007.24,0005.65
2024-04-25 04:18:00,SystemResetWarning,0824.9,5.00,000.00,025.3,024.6,000.0,033.6,027.2,023.3,0003.0,0018.66,0007.01,0005.45
2024-04-25 04:19:00,SystemResetWarning,0824.9,5.00,000.00,025.4,024.7,000.0,033.6,027.3,023.2,0002.5,0017.95,0006.78,0005.24
2024-04-25 04:20:00,SystemResetWarning,0824.9,5.01,000.00,025.4,024.8,000.0,033.7,027.3,023.3,0001.5,0017.52,0006.47,0005.02
2024-04-25 04:21:00,SystemResetWarning,0824.9,5.00,000.00,025.5,024.9,000.0,033.7,027.4,023.2,0000.0,0018.15,0006.30,0004.83
2024-04-25 04:22:00,SystemResetWarning,0824.9,5.00,000.00,025.5,025.0,000.0,033.7,027.5,022.9,0000.0,0019.18,0006.19,0004.66
2024-04-25 04:23:00,SystemResetWarning,0824.8,4.99,000.00,025.6,025.0,000.0,033.8,027.5,022.8,0000.0,0018.87,0006.05,0004.56
2024-04-25 04:24:00,SystemResetWarning,0824.9,4.99,000.00,025.6,025.1,000.0,033.8,027.5,022.9,0000.0,0018.96,0005.88,0004.45
2024-04-25 04:25:00,SystemResetWarning,0824.9,5.00,000.00,025.6,025.1,000.0,033.8,027.6,022.9,0000.0,0018.53,0005.78,0004.39
2024-04-25 04:26:00,SystemResetWarning,0824.9,5.00,000.00,025.7,025.1,000.0,033.9,027.6,022.8,0000.0,0017.96,0005.71,0004.33
2024-04-25 04:27:00,SystemResetWarning,0824.8,5.01,000.00,025.7,025.2,000.0,033.9,027.6,022.7,0000.0,0018.31,0005.65,0004.30
2024-04-25 04:28:00,SystemResetWarning,0824.8,5.01,000.00,025.7,025.2,000.0,033.9,027.6,022.8,0000.0,0018.30,0005.54,0004.25
2024-04-25 04:29:00,SystemResetWarning,0824.8,5.01,000.00,025.8,025.2,000.0,034.0,027.7,022.8,0000.0,0018.45,0005.45,0004.19
2024-04-25 04:30:00,SystemResetWarning,0824.8,4.99,000.00,025.8,025.2,000.0,034.0,027.7,022.4,0000.0,0018.60,0005.40,0004.15
2024-04-25 04:31:00,SystemResetWarning,0824.7,4.99,000.00,025.8,025.2,000.0,034.0,027.7,022.4,0000.0,0018.74,0005.37,0004.12
2024-04-25 04:32:00,SystemResetWarning,0824.7,5.00,000.00,025.8,025.3,000.0,034.0,027.7,022.2,0000.0,0018.18,0005.27,0004.07
2024-04-25 04:33:00,SystemResetWarning,0824.8,5.01,000.00,025.9,025.3,000.0,034.1,027.8,022.3,0000.0,0016.49,0005.14,0004.03
2024-04-25 04:34:00,SystemResetWarning,0824.8,5.01,000.00,025.9,025.3,000.0,034.1,027.8,022.2,0000.0,0016.90,0005.15,0004.01
2024-04-25 04:35:00,SystemResetWarning,0824.7,4.99,000.00,025.9,024.8,000.0,034.1,027.4,022.2,0000.0,0016.57,0005.15,0003.99
2024-04-25 04:36:00,SystemResetWarning,0824.7,4.99,000.00,025.5,022.6,000.0,034.2,026.3,022.7,0000.0,0016.00,0005.14,0003.97
2024-04-25 04:37:00,SystemResetWarning,0824.7,5.02,000.00,025.1,022.0,000.0,034.1,025.8,023.4,0000.0,0015.72,0005.12,0003.95
2024-04-25 04:38:00,SystemResetWarning,0824.7,5.00,000.00,025.0,022.3,000.0,034.0,025.8,023.7,0000.0,0014.81,0005.07,0003.92
2024-04-25 04:39:00,SystemResetWarning,0824.7,5.00,000.00,024.9,022.6,000.0,033.8,026.2,023.7,0000.0,0013.98,0005.08,0003.91
2024-04-25 04:40:00,SystemResetWarning,0824.8,5.00,000.00,025.0,023.0,000.0,033.8,026.5,023.7,0000.0,0014.05,0005.06,0003.90
2024-04-25 04:41:00,SystemResetWarning,0824.7,4.99,000.00,025.0,023.3,000.0,033.7,026.6,023.7,0000.0,0013.80,0005.00,0003.88
2024-04-25 04:42:00,SystemResetWarning,0824.7,5.00,000.00,025.0,023.5,000.0,033.7,026.7,023.4,0000.0,0013.86,0004.95,0003.87
2024-04-25 04:43:00,SystemResetWarning,0824.7,5.01,000.00,025.1,023.8,000.0,033.6,026.8,023.3,0000.0,0013.12,0004.91,0003.88
2024-04-25 04:44:00,SystemResetWarning,0824.7,5.01,000.00,025.1,023.9,000.0,033.6,026.9,023.2,0000.0,0012.99,0004.90,0003.87
2024-04-25 04:45:00,SystemResetWarning,0824.7,5.00,000.00,025.1,024.1,000.0,033.6,027.0,023.2,0000.0,0012.73,0004.87,0003.86
2024-04-25 04:46:00,SystemResetWarning,0824.7,5.00,000.00,025.2,024.2,000.0,033.6,027.0,023.1,0000.0,0012.36,0004.83,0003.85
2024-04-25 04:47:00,SystemResetWarning,0824.7,5.00,000.00,025.2,024.4,000.0,033.6,027.1,022.9,0000.0,0012.43,0004.82,0003.84
2024-04-25 04:48:00,SystemResetWarning,0824.7,5.00,000.00,025.3,024.5,000.0,033.6,027.2,022.8,0000.0,0012.54,0004.80,0003.84
2024-04-25 04:49:00,SystemResetWarning,0824.8,5.00,000.00,025.3,024.5,000.0,033.7,027.2,022.7,0000.0,0012.96,0004.78,0003.84
2024-04-25 04:50:00,SystemResetWarning,0824.7,5.00,000.00,025.3,024.6,000.0,033.7,027.2,022.5,0000.0,0013.07,0004.73,0003.82
2024-04-25 04:51:00,SystemResetWarning,0824.7,5.00,000.00,025.4,024.7,000.0,033.7,027.3,022.4,0000.0,0012.42,0004.68,0003.79
2024-04-25 04:52:00,SystemResetWarning,0824.7,4.99,000.00,025.4,024.8,000.0,033.7,027.3,022.3,0000.0,0011.75,0004.65,0003.78
2024-04-25 04:53:00,SystemResetWarning,0824.8,5.00,000.00,025.5,024.8,000.0,033.7,027.4,022.2,0000.0,0011.42,0004.67,0003.75
2024-04-25 04:54:00,SystemResetWarning,0824.8,5.00,000.00,025.5,024.9,000.0,033.7,027.4,022.1,0000.0,0011.35,0004.67,0003.73
2024-04-25 04:55:00,SystemResetWarning,0824.8,5.00,000.00,025.5,024.9,000.0,033.8,027.4,022.1,0000.0,0011.17,0004.61,0003.71
2024-04-25 04:56:00,SystemResetWarning,0824.9,5.00,000.00,025.6,025.0,000.0,033.8,027.5,022.0,0000.0,0010.87,0004.58,0003.69
2024-04-25 04:57:00,SystemResetWarning,0824.9,5.00,000.00,025.6,025.0,000.0,033.8,027.5,021.9,0000.0,0010.37,0004.53,0003.66
2024-04-25 04:58:00,SystemResetWarning,0824.9,5.00,000.00,025.6,025.0,000.0,033.9,027.5,021.9,0000.0,0010.28,0004.51,0003.64
2024-04-25 04:59:00,SystemResetWarning,0824.9,5.00,000.00,025.7,025.1,000.0,033.9,027.6,021.8,0000.0,0010.20,0004.51,0003.60
